Glasgow, United Kingdom

11:18 PM BST on August 31, 2016 (GMT +0100)
Glasgow

Weather History for EGPF - February, 2012

Change the Weather History Date:

Wednesday, February 1, 2012

  Actual Average Record
Temperature  
Mean Temperature 31 °F -  
Max Temperature 39 °F 44 °F 55 °F (2002)
Min Temperature 23 °F 32 °F 23 °F (2012)
Degree Days  
Heating Degree Days 34    
Moisture  
Dew Point 24 °F    
Average Humidity 82    
Maximum Humidity 93    
Minimum Humidity 56    
Precipitation  
Precipitation 0.00 in - - ()
Sea Level Pressure  
Sea Level Pressure 30.67 in    
Wind  
Wind Speed 4 mph ()    
Max Wind Speed 7 mph    
Max Gust Speed -    
Visibility 5.8 miles    
Events      
Averages and records for this station are not official NWS values.
T = Trace of Precipitation, MM = Missing Value Source: Averaged Metar Reports

Daily Weather History Graph

Daily Weather History Graph

Search for Another Location

Airport or City:

Trip Planner

Search our weather history database for the weather conditions in past years. The results will help you decide how hot, cold, wet, or windy it might be!

Date:

Astronomy

Feb. 01, 2012 Rise Set
Actual Time 8:13 AM GMT 4:50 PM GMT
Civil Twilight 7:32 AM GMT 5:31 PM GMT
Nautical Twilight 6:47 AM GMT 6:16 PM GMT
Astronomical Twilight 6:04 AM GMT 6:59 PM GMT
Moon 10:52 AM GMT (2/1) 2:59 AM GMT (2/1)
Length of Visible Light 9h 58m
Length of Day
8h 36m
Waxing Gibbous, 62% of the Moon is Illuminated
Feb 1
Waxing Gibbous
Feb 7
Full
Feb 14
Last Quarter
Feb 21
New
Mar 1
First Quarter

Hourly Weather History & Observations

Time (GMT) Temp. Windchill Dew Point Humidity Pressure Visibility Wind Dir Wind Speed Gust Speed Precip Events Conditions
12:20 AM 28.4 °F 21.2 °F 23.0 °F 80% 30.60 in - East 6.9 mph - N/A   Clear
12:50 AM 28.4 °F 21.2 °F 23.0 °F 80% 30.60 in - ENE 6.9 mph - N/A   Clear
1:20 AM 28.4 °F 23.3 °F 23.0 °F 80% 30.60 in 6.2 mi East 4.6 mph - N/A   Mostly Cloudy
2:20 AM 24.8 °F 20.5 °F 23.0 °F 93% 30.63 in 6.2 mi Variable 3.5 mph - N/A   Partly Cloudy
2:50 AM 24.8 °F 19.1 °F 23.0 °F 93% 30.63 in 6.2 mi WSW 4.6 mph - N/A   Partly Cloudy
3:20 AM 24.8 °F - 23.0 °F 93% 30.63 in 6.2 mi WNW 2.3 mph - N/A   Unknown
3:50 AM 24.8 °F - 23.0 °F 93% 30.63 in 4.3 mi SW 2.3 mph - N/A   Unknown
4:20 AM 24.8 °F - 21.2 °F 86% 30.63 in 5.6 mi SW 2.3 mph - N/A   Unknown
4:50 AM 23.0 °F 18.4 °F 21.2 °F 93% 30.63 in 5.6 mi WSW 3.5 mph - N/A   Unknown
5:20 AM 23.0 °F 17.0 °F 21.2 °F 93% 30.63 in 5.0 mi ESE 4.6 mph - N/A   Unknown
5:50 AM 24.8 °F 19.1 °F 23.0 °F 93% 30.63 in 5.6 mi South 4.6 mph - N/A   Unknown
6:20 AM 23.0 °F 17.0 °F 21.2 °F 93% 30.66 in 5.6 mi WNW 4.6 mph - N/A   Unknown
6:50 AM 23.0 °F - 21.2 °F 93% 30.66 in 5.0 mi Calm Calm - N/A   Unknown
7:20 AM 23.0 °F 18.4 °F 21.2 °F 93% 30.66 in 5.0 mi WSW 3.5 mph - N/A   Unknown
7:50 AM 23.0 °F - 21.2 °F 93% 30.66 in 5.6 mi SW 2.3 mph - N/A   Unknown
8:20 AM 24.8 °F 20.5 °F 23.0 °F 93% 30.66 in - Variable 3.5 mph - N/A   Clear
8:50 AM 26.6 °F 22.6 °F 24.8 °F 93% 30.66 in 6.2 mi Variable 3.5 mph - N/A   Partly Cloudy
9:20 AM 26.6 °F - 24.8 °F 93% 30.66 in - Variable 2.3 mph - N/A   Clear
9:50 AM 28.4 °F - 24.8 °F 86% 30.66 in - Variable 2.3 mph - N/A   Clear
10:20 AM 30.2 °F - 26.6 °F 86% 30.69 in - Variable 2.3 mph - N/A   Clear
10:50 AM 32.0 °F - 28.4 °F 87% 30.69 in - Variable 2.3 mph - N/A   Clear
11:20 AM 33.8 °F - 28.4 °F 81% 30.69 in - Calm Calm - N/A   Clear
11:50 AM 37.4 °F - 28.4 °F 70% 30.69 in - Calm Calm - N/A   Clear
12:20 PM 37.4 °F 33.8 °F 28.4 °F 70% 30.69 in 6.2 mi ESE 4.6 mph - N/A   Partly Cloudy
12:50 PM 37.4 °F 32.1 °F 28.4 °F 70% 30.69 in 6.2 mi Variable 6.9 mph - N/A   Partly Cloudy
1:20 PM 39.2 °F 35.0 °F 26.6 °F 61% 30.66 in 6.2 mi ESE 5.8 mph - N/A   Partly Cloudy
1:50 PM 39.2 °F 35.9 °F 26.6 °F 61% 30.66 in 6.2 mi ESE 4.6 mph - N/A   Partly Cloudy
2:20 PM 39.2 °F 37.0 °F 26.6 °F 61% 30.69 in 6.2 mi Variable 3.5 mph - N/A   Partly Cloudy
2:50 PM 39.2 °F 35.9 °F 26.6 °F 61% 30.69 in 6.2 mi East 4.6 mph - N/A   Partly Cloudy
3:20 PM 39.2 °F 34.2 °F 26.6 °F 61% 30.66 in 6.2 mi East 6.9 mph - N/A   Partly Cloudy
3:50 PM 39.2 °F 34.2 °F 24.8 °F 56% 30.66 in 6.2 mi Variable 6.9 mph - N/A   Partly Cloudy
4:20 PM 37.4 °F 32.8 °F 24.8 °F 60% 30.69 in - SSE 5.8 mph - N/A   Clear
4:50 PM 35.6 °F 32.8 °F 24.8 °F 65% 30.69 in - SSE 3.5 mph - N/A   Clear
5:20 PM 33.8 °F - 24.8 °F 70% 30.69 in - Variable 2.3 mph - N/A   Clear
5:50 PM 33.8 °F 30.8 °F 26.6 °F 75% 30.69 in - SE 3.5 mph - N/A   Clear
6:20 PM 30.2 °F 24.3 °F 24.8 °F 80% 30.69 in - SE 5.8 mph - N/A   Clear
6:50 PM 28.4 °F - 24.8 °F 86% 30.69 in - Variable 2.3 mph - N/A   Clear
7:20 PM 26.6 °F 22.6 °F 23.0 °F 86% 30.71 in - Variable 3.5 mph - N/A   Clear
7:50 PM 26.6 °F 22.6 °F 24.8 °F 93% 30.71 in - Variable 3.5 mph - N/A   Clear
8:20 PM 26.6 °F 21.2 °F 23.0 °F 86% 30.71 in - ESE 4.6 mph - N/A   Clear
8:50 PM 26.6 °F - 21.2 °F 80% 30.71 in - Calm Calm - N/A   Clear
9:20 PM 24.8 °F - 21.2 °F 86% 30.71 in - NE 2.3 mph - N/A   Clear
9:50 PM 24.8 °F - 23.0 °F 93% 30.69 in - Variable 2.3 mph - N/A   Clear
10:20 PM 23.0 °F - 21.2 °F 93% 30.69 in - Calm Calm - N/A   Clear
10:50 PM 23.0 °F - 21.2 °F 93% 30.71 in - Calm Calm - N/A   Clear
11:20 PM 23.0 °F - 21.2 °F 93% 30.71 in - Calm Calm - N/A   Clear
11:50 PM 23.0 °F 18.4 °F 21.2 °F 93% 30.71 in 5.6 mi WSW 3.5 mph - N/A   Unknown